• Processing (Info)

  • MPEC 2012-X79 : P/2012 WX32 = 1931 AN = 2003 WZ141 (Tombaugh-Tenagra)

    The following Minor Planet Electronic Circular may be linked-to from your own Web pages, but must not otherwise be redistributed electronically.

    A form allowing access to any MPEC is at the bottom of this page.


    Read MPEC 2012-X78 Read MPEC 2012-X80


    M.P.E.C. 2012-X79                                Issued 2012 Dec. 13, 18:05 UT
    
         The Minor Planet Electronic Circulars contain information on unusual
             minor planets and routine data on comets.  They are published
       on behalf of Commission 20 of the International Astronomical Union by the
              Minor Planet Center, Smithsonian Astrophysical Observatory,
                              Cambridge, MA 02138, U.S.A.
    
                 Prepared using the Tamkin Foundation Computer Network
    
                                  MPC@CFA.HARVARD.EDU
                URL https://www.minorplanetcenter.net/    ISSN 1523-6714
    
                 P/2012 WX32 = 1931 AN = 2003 WZ141 (Tombaugh-Tenagra)
    
    Observations:
        PK03WE1Z  C2003 11 21.39078 07 16 04.05 +25 08 27.2          19.0 TcEX079704
        PK03WE1Z  C2003 11 21.40381 07 16 04.24 +25 08 33.2          19.2 TcEX079704
        PK03WE1Z  C2003 11 21.41701 07 16 04.24 +25 08 38.8          19.4 TcEX079704
        PK03WE1Z  C2003 11 21.43026 07 16 04.33 +25 08 44.8          19.1 TcEX079704
        PK03WE1Z  C2003 11 21.44331 07 16 04.48 +25 08 51.3          19.3 TcEX079704
        PK03WE1Z  C2003 11 23.34066 07 16 17.15 +25 22 44.4          18.8 TcEX079704
        PK03WE1Z  C2003 11 23.35326 07 16 17.18 +25 22 50.2          19.0 TcEX079704
        PK03WE1Z  C2003 11 23.36586 07 16 17.11 +25 22 56.4          19.1 TcEX079704
        PK03WE1Z  C2003 11 23.37855 07 16 17.17 +25 23 01.8          19.1 TcEX079704
        PK03WE1Z  C2003 11 23.39134 07 16 17.34 +25 23 07.2          18.5 TcEX079704
        PK03WE1Z  C2003 12 18.38250 07 09 38.71 +29 00 58.9          17.0 TcEX079691
        PK03WE1Z  C2003 12 18.41030 07 09 37.82 +29 01 13.7          18.0 TcEX079691
        PK03WE1Z  C2003 12 18.44383 07 09 36.54 +29 01 32.6          18.0 TcEX079691
        PK12W32X  C2012 12 08.10443 07 19 52.01 +28 29 27.1          17.6 NwEX079I57
        PK12W32X  C2012 12 08.13075 07 19 51.53 +28 29 42.3          17.7 NwEX079I57
        PK12W32X  C2012 12 08.14649 07 19 51.23 +28 29 51.4          17.6 NwEX079I57
        PK12W32X  C2012 12 08.72406 07 19 40.59 +28 35 21.5                uEX079900
        PK12W32X  C2012 12 08.73477 07 19 40.34 +28 35 27.5          17.5 TuEX079900
        PK12W32X  C2012 12 10.76890 07 18 58.49 +28 54 57.9          17.9 TrEX079C32
        PK12W32X  C2012 12 10.77443 07 18 58.38 +28 55 01.3          17.9 TrEX079C32
        PK12W32X  C2012 12 10.77990 07 18 58.25 +28 55 04.8          17.9 TrEX079C32
        PK12W32X KC2012 12 10.95731 07 18 54.11 +28 56 47.9          17.8 NtEX079B75
        PK12W32X KC2012 12 10.95870 07 18 54.14 +28 56 49.2          17.5 NtEX079B75
        PK12W32X KC2012 12 10.96055 07 18 54.04 +28 56 50.5          17.7 NtEX079B75
        PK12W32X  C2012 12 11.04425 07 18 52.00 +28 57 39.3          17.3 NuEX079C10
        PK12W32X  C2012 12 11.06033 07 18 51.63 +28 57 48.5          17.4 NuEX079C10
        PK12W32X  C2012 12 11.07534 07 18 51.21 +28 57 57.1          17.5 NuEX079C10
        PK12W32X  C2012 12 11.08122 07 18 51.07 +28 58 00.6          17.1 NuEX079C23
        PK12W32X  C2012 12 11.08818 07 18 50.95 +28 58 04.9          17.1 NuEX079C23
        PK12W32X  C2012 12 11.09251 07 18 50.82 +28 58 06.8          17.3 NuEX079C23
        PK12W32X  C2012 12 12.03678 07 18 28.46 +29 07 18.2          17.4 NtEX079B75
        PK12W32X  C2012 12 12.03781 07 18 28.45 +29 07 18.9          17.6 NtEX079B75
        PK12W32X  C2012 12 12.03881 07 18 28.43 +29 07 19.8          17.6 NtEX079B75
        PK12W32X  C2012 12 12.03994 07 18 28.32 +29 07 20.1          17.4 NtEX079B75
        PK12W32X  C2012 12 12.04139 07 18 28.32 +29 07 21.3          17.0 NtEX079B75
        PK12W32X  C2012 12 12.28554 07 18 22.37 +29 09 44.8          18.0 ToEX079691
        PK12W32X  C2012 12 12.30349 07 18 21.87 +29 09 55.7          17.8 ToEX079691
        PK12W32X  C2012 12 12.32143 07 18 21.29 +29 10 06.7          17.6 ToEX079691
        PK12W32X  C2012 12 12.32240 07 18 21.42 +29 10 06.6          18.2 TcEX079704
        PK12W32X  C2012 12 12.33594 07 18 21.10 +29 10 15.3          18.1 TcEX079704
        PK12W32X  C2012 12 12.34985 07 18 20.68 +29 10 22.9          18.5 TcEX079704
        PK12W32X  C2012 12 12.36316 07 18 20.28 +29 10 30.7          18.2 TcEX079704
        PK12W32X  C2012 12 12.37652 07 18 19.92 +29 10 39.1          18.3 TcEX079704
        PK12W32X  C2012 12 12.45198 07 18 17.89 +29 11 22.4          17.5 TrEX079G96
        PK12W32X  C2012 12 12.45845 07 18 17.64 +29 11 25.9          17.4 TrEX079G96
        PK12W32X  C2012 12 12.46488 07 18 17.49 +29 11 29.6          17.3 TrEX079G96
        PK12W32X  C2012 12 12.47132 07 18 17.31 +29 11 33.4          17.4 TrEX079G96
        PK12W32X  C2012 12 13.41655 07 17 52.87 +29 20 49.1          17.6 NqEX079H45
        PK12W32X  C2012 12 13.41869 07 17 52.78 +29 20 49.8          17.6 NqEX079H45
        PK12W32X  C2012 12 13.41977 07 17 52.77 +29 20 51.1          17.7 NqEX079H45
        PK12W32X  C2012 12 13.42138 07 17 52.71 +29 20 51.8          17.5 NqEX079H45
        PK12W32X  C2012 12 13.42271 07 17 52.66 +29 20 52.7          17.6 NqEX079H45
        PK12W32X  C2012 12 13.42388 07 17 52.64 +29 20 53.1          17.7 NqEX079H45
        PK12W32X  C2012 12 13.42529 07 17 52.61 +29 20 54.4          17.7 NqEX079H45
        PK12W32X  C2012 12 13.42627 07 17 52.59 +29 20 54.8          17.5 NqEX079H45
        PK12W32X KC2012 12 13.54242 07 17 49.83 +29 22 02.5                uEX079367
        PK12W32X KC2012 12 13.54676 07 17 49.71 +29 22 03.8          16.8 TuEX079367
    
    Observer details:
    367 Yatsuka.  Observer H. Abe.  0.26-m f/6.0 reflector + CCD.
    691 Steward Observatory, Kitt Peak.  Observer R. S. McMillan.  0.9-m f/3
        reflector + CCD.
    704 Lincoln Laboratory ETS, New Mexico.  Observers M. Blythe, F. Shelley,
        M. Bezpalko, R. Huber, L. Manguso, D. Torres, R. Kracke, M. McCleary,
        H. Stange, A. Milner,  Measurers J. Stuart, R. Sayer, J. Evans, J. Kommers.
        1.0-m f/2.15 reflector + CCD.
    900 Moriyama.  Observer Y. Ikari.  0.26-m f/7.0 reflector + CCD.
    B75 Stazione Astronomica Betelgeuse, Magnago.  Observer M. Martignoni.  0.25-m
        f/10 Schmidt-Cassegrain + CCD.
    C10 Maisoncelles.  Observer J. F. Soulier.  0.30-m f/3 Newtonian reflector
        + CCD.
    C23 Olmen.  Observer A. Diepvens.  0.20-m f/9 refractor + CCD.
    C32 Ka-Dar Observatory, TAU Station, Nizhny Arkhyz.  Observer V. Gerke.
        Measurer S. Plaksa.  0.40-m f/8 Ritchey-Chretien + CCD.
    G96 Mt. Lemmon Survey.  Observer A. Boattini.  Measurers A. Boattini,
        E. J. Christensen, A. R. Gibbs, A. D. Grauer, R. E. Hill, J. A. Johnson,
        R. A. Kowalski, S. M. Larson, R. H. McNaught.  1.5-m reflector + CCD.
    H45 Arkansas Sky Obs., Petit Jean Mountain South.  Observer P. C. Sherrod.
        0.51-m f/4.3 astrograph + CCD.
    I57 Elche.  Observer J. Lozano.  0.25-m f/10 Schmidt-Cassegrain + CCD.
    
    Orbital elements:
        P/2012 WX32 = 1931 AN = 2003 WZ141 (Tombaugh-Tenagra)
    Epoch 2013 Mar. 9.0 TT = JDT 2456360.5
    T 2013 Feb. 23.35003 TT                                 MPC
    q   2.4418922            (2000.0)            P               Q
    n   0.10822138     Peri.   38.45834     -0.47395239     -0.83818844
    a   4.3610795      Node    81.36298     +0.72521512     -0.54536946
    e   0.4400716      Incl.   15.83852     +0.49943184     -0.00350646
    P   9.11
    From 125 observations 1931 Jan. 12-2012 Dec. 13, mean residual 0".53.
    
        P/2012 WX32 = 1931 AN = 2003 WZ141 (Tombaugh-Tenagra)
    Epoch 2012 Sept. 30.0 TT = JDT 2456200.5
    T 2013 Feb. 23.32149 TT                                 MPC
    q   2.4418245            (2000.0)            P               Q
    n   0.10803796     Peri.   38.45618     -0.47391489     -0.83821658
    a   4.3660142      Node    81.36235     +0.72524634     -0.54532626
    e   0.4407200      Incl.   15.83725     +0.49942209     -0.00349894
    P   9.12
    From 125 observations 1931 Jan. 12-2012 Dec. 13, mean residual 0".53.
    
        P/2012 WX32 = 1931 AN = 2003 WZ141 (Tombaugh-Tenagra)
    Epoch 2004 Mar. 16.0 TT = JDT 2453080.5
    T 2004 Mar.  9.83331 TT                                 MPC
    q   2.4669499            (2000.0)            P               Q
    n   0.10802425     Peri.   39.52546     -0.52142680     -0.80785507
    a   4.3663836      Node    83.57298     +0.69606540     -0.58893642
    e   0.4350130      Incl.   16.05033     +0.49356565     -0.02289264
    P   9.12
    From 125 observations 1931 Jan. 12-2012 Dec. 13, mean residual 0".53.
    
        P/2012 WX32 = 1931 AN = 2003 WZ141 (Tombaugh-Tenagra)
    Epoch 1995 Jan. 3.0 TT = JDT 2449720.5
    T 1995 Jan. 20.06746 TT                                 MPC
    q   2.4784334            (2000.0)            P               Q
    n   0.10762307     Peri.   39.43717     -0.51986714     -0.80891449
    a   4.3772276      Node    83.54957     +0.69720763     -0.58751059
    e   0.4337892      Incl.   16.04139     +0.49359870     -0.02210540
    P   9.16
    From 125 observations 1931 Jan. 12-2012 Dec. 13, mean residual 0".53.
    
